     2              OBSERVATION DATA    GPS                 RINEX VERSION / TYPE
ASRINEXO V2.9.7 UX USGS/MENLO_PARK 28-JAN- 0 15:07          PGM / RUN BY / DATE
                                                            COMMENT
Original Marker Name: wd91 Wild_1991_NCER                   COMMENT
Campaign Name: USGS - S Calif Monitor                       COMMENT
4-Character Station Name: WD91                              COMMENT
6-Character Antenna Code: DMRCHT                            COMMENT
Vertical Measurement Point: BCR                             COMMENT
Vertical Offset to Rinex Ref. Point: 0.0348                 COMMENT
Radial Measurement Point: ECF                               COMMENT
Radial Offset to Rinex Ref. Point: 0.1897                   COMMENT
Antenna Height from Field Measurement: 1.4120 m             COMMENT
Additional Antenna Identification Info.:                    COMMENT
Turborogue and Ashtech Choke Ring                           COMMENT
Original XYZ: -2387858.6447 -4745279.2954 3521014.3427      COMMENT
New XYZ position is based on association with SCEC monument COMMENT
E1D0T2D4+0011. Position of that monument is believed to be  COMMENT
valid to within 1 m horizontally; vertical accuracy         COMMENT
should be no worse than 3-times this value.                 COMMENT
                                                            COMMENT
Revised Rinex header created by UCSD GPS archive for        COMMENT
GSAC on 04-Apr-2000 (2000:095) 21:32:51 GMT                 COMMENT
For assistance contact dagnew@ucsd.edu or hjohnson@ucsd.edu COMMENT
                                                            COMMENT
WILD 1991                                                   MARKER NAME
JMS US GEOLOGICAL SURVEY                                    OBSERVER / AGENCY
582 ASHTECH Z-XII3 CC00                                     REC # / TYPE / VERS
801 DORNE-MARGOL. TYPE T                                    ANT # / TYPE
 -2387845.8870 -4745235.4039  3520960.7697                  APPROX POSITION XYZ
        1.3644        0.0000        0.0000                  ANTENNA: DELTA H/E/N
     1     1     0                                          WAVELENGTH FACT L1/2
     5    C1    L1    L2    P1    P2                        # / TYPES OF OBSERV
    30                                                      INTERVAL
  2000     1    28     0     1    0.000000                  TIME OF FIRST OBS
  2000     1    28     0    25    0.000000                  TIME OF LAST OBS
                                                            END OF HEADER
 00  1 28  0  1  0.0000000  0  7 24 02 16 04 05 07 09
  20426128.373   -22662906.745 9 -16631171.28348  20426128.076    20426136.9564
  24340615.162    -5965369.093 7  -4628394.14544  24340614.665    24340627.0444
  24357332.613    -3571620.441 7  -2777773.47445  24357332.270    24357346.1834
  20674966.875   -20461167.787 9 -15930981.64748  20674966.958    20674974.8444
  21593046.941   -15353120.571 9 -11932993.46747  21593046.295    21593055.6004
  23418368.378    -9543129.841 8  -7162059.38745  23418367.841    23418379.5104
  21466079.090   -15915458.873 9 -12150823.92047  21466078.852    21466087.1454
 00  1 28  0  1 30.0000000  0  6 24 16 04 05 07 09
  20419264.712   -22698975.234 9 -16659276.54948  20419264.428    20419273.3044
  24359261.742    -3561482.186 7  -2769873.44245  24359261.435    24359275.3074
  20683899.995   -20414223.891 9 -15894401.97548  20683900.104    20683907.9464
  21579646.371   -15423540.781 9 -11987866.26347  21579645.692    21579654.9304
  23430904.765    -9477250.359 8  -7110724.73245  23430904.302    23430916.0384
  21474078.429   -15873422.601 9 -12118068.38647  21474078.135    21474086.4944
 00  1 28  0  2  0.0000000  0  6 24 16 04 05 07 09
  20412522.245   -22734406.928 9 -16686885.61348  20412522.025    20412530.7534
  24361313.024    -3550702.871 7  -2761473.89045  24361312.485    24361326.6764
  20692944.602   -20366694.315 9 -15857365.94248  20692944.692    20692952.5124
  21566302.510   -15493662.446 9 -12042506.42047  21566301.920    21566311.2314
  23443460.469    -9411270.500 8  -7059311.86745  23443459.980    23443471.6324
  21482191.367   -15830788.686 9 -12084847.16047  21482191.128    21482199.5624
 00  1 28  0  2 30.0000000  0  6 24 16 04 05 07 09
  20405872.190   -22769353.216 9 -16714116.42948  20405871.949    20405880.6424
  24363456.364    -3539439.729 7  -2752697.36045  24363455.810    24363469.7514
  20702067.151   -20318755.277 9 -15820010.84148  20702067.197    20702074.9954
  21552985.903   -15563641.228 9 -12097035.23747  21552985.249    21552994.6794
  23456002.687    -9345360.693 8  -7007953.59345  23456002.118    23456013.7334
  21490389.134   -15787709.513 9 -12051278.98647  21490388.873    21490397.3134
 00  1 28  0  3  0.0000000  0  6 24 16 04 05 07 09
  20399316.675   -22803802.507 9 -16740959.98248  20399316.427    20399325.0964
  24365691.273    -3527694.902 7  -2743545.50045  24365690.714    24365704.3234
  20711268.614   -20270401.312 9 -15782332.42348  20711268.677    20711276.4594
  21539699.902   -15633458.935 9 -12151438.54747  21539699.247    21539708.7744
  23468535.946    -9279498.758 8  -6956632.63745  23468535.271    23468546.8324
  21498673.902   -15744172.650 9 -12017354.17247  21498673.618    21498682.2094
 00  1 28  0  3 30.0000000  0  6 24 16 04 05 07 09
  20392855.650   -22837754.977 9 -16767416.39648  20392855.440    20392864.1294
  24368016.171    -3515476.936 7  -2734024.96145  24368015.514    24368029.4574
  20720552.705   -20221613.159 9 -15744315.67648  20720552.750    20720560.5564
  21526450.309   -15703085.331 9 -12205692.79047  21526449.729    21526459.1534
  23481066.335    -9213651.560 8  -6905323.16445  23481065.567    23481077.2324
  21507045.971   -15700176.310 9 -11983071.31047  21507045.742    21507054.4254
 00  1 28  0  4  0.0000000  0  6 24 16 04 05 07 09
  20386491.236   -22871200.324 9 -16793477.65148  20386490.976    20386499.6594
  24370435.696    -3502762.113 7  -2724117.25945  24370435.109    24370448.9264
  20729924.502   -20172363.824 9 -15705939.57047  20729924.572    20729932.4114
  21513242.331   -15772494.372 9 -12259777.67147  21513241.653    21513250.8934
  23493599.489    -9147789.788 8  -6854002.31245  23493598.621    23493610.3444
  21515504.501   -15655726.661 9 -11948435.22647  21515504.266    21515512.9264
 00  1 28  0  4 30.0000000  0  6 24 16 04 05 07 09
  20380223.343   -22904137.740 9 -16819143.12048  20380223.135    20380231.8284
  24372951.777    -3489539.717 7  -2713814.02145  24372951.117    24372965.1364
  20739387.619   -20122634.809 9 -15667189.68547  20739387.681    20739395.5544
  21500077.088   -15841677.168 9 -12313686.24947  21500076.487    21500085.7194
  23506140.052    -9081888.135 8  -6802650.36945  23506139.169    23506150.9624
  21524051.821   -15610810.563 9 -11913435.68347  21524051.579    21524060.1894
 00  1 28  0  5  0.0000000  0  6 24 16 04 05 07 09
  20374052.228   -22936567.146 9 -16844412.73648  20374052.007    20374060.6864
  24375565.676    -3475803.221 7  -2703110.23445  24375565.187    24375579.1114
  20748945.848   -20072406.174 9 -15628050.49047  20748945.844    20748953.7384
  21486956.961   -15910623.204 8 -12367410.33647  21486956.360    21486965.6274
  23518688.718    -9015944.634 8  -6751265.84445  23518687.881    23518699.5224
  21532689.603   -15565419.073 8 -11878065.68947  21532689.329    21532697.9614
 00  1 28  0  5 30.0000000  0  6 24 16 04 05 07 09
  20367980.594   -22968473.904 9 -16869275.09848  20367980.341    20367989.0014
  24378281.987    -3461527.095 7  -2691985.90245  24378281.497    24378295.5324
  20758598.899   -20021678.383 9 -15588522.34247  20758598.991    20758606.8754
  21473883.726   -15979322.935 9 -12420942.50347  21473883.070    21473892.3644
  23531243.395    -8949968.752 8  -6699856.09145  23531242.700    23531254.2714
  21541418.576   -15519547.678 9 -11842321.75147  21541418.326    21541427.0014
 00  1 28  0  6  0.0000000  0  6 24 16 04 05 07 09
  20362009.846   -22999850.082 9 -16893724.01648  20362009.604    20362018.2694
  24381102.064    -3446708.033 7  -2680438.48545  24381101.425    24381115.3864
  20768345.771   -19970458.210 9 -15548610.51947  20768345.843    20768353.7584
  21460855.637   -16047785.594 9 -12474289.93147  21460854.979    21460864.2744
  23543800.869    -8883978.863 8  -6648435.42545  23543800.056    23543811.6444
  21550241.399   -15473183.852 9 -11806194.09947  21550241.138    21550249.8364
 00  1 28  0  6 30.0000000  0  6 24 16 04 05 07 09
  20356141.551   -23030687.835 9 -16917753.37648  20356141.327    20356149.9674
  24384021.714    -3431365.779 7  -2668483.38745  24384020.983    24384034.7424
  20778184.998   -19918752.813 9 -15508320.59047  20778185.052    20778192.9854
  21447869.198   -16116029.397 9 -12527466.82347  21447868.520    21447877.7704
  23556357.683    -8817990.711 8  -6597016.11545  23556357.063    23556368.6474
  21559160.027   -15426316.685 9 -11769674.23447  21559159.684    21559168.3214
 00  1 28  0  7  0.0000000  0  6 24 16 04 05 07 09
  20350378.512   -23060972.542 9 -16941351.80048  20350378.286    20350386.9314
  24387042.487    -3415491.846 7  -2656114.03045  24387041.782    24387055.3544
  20788115.866   -19866565.718 9 -15467655.31547  20788115.947    20788123.8014
  21434923.733   -16184057.393 9 -12580475.55847  21434923.122    21434932.3484
  23568915.392    -8752001.034 8  -6545595.60745  23568914.699    23568926.0914
  21568173.298   -15378951.116 9 -11732765.99547  21568173.005    21568181.6574
 00  1 28  0  7 30.0000000  0  6 24 16 04 05 07 09
  20344719.145   -23090712.313 9 -16964525.59348  20344718.944    20344727.6084
  24390164.453    -3399084.569 7  -2643329.02745  24390163.771    24390177.5254
  20798135.139   -19813914.234 9 -15426628.18247  20798135.201    20798143.0144
  21422021.207   -16251860.614 9 -12633309.14147  21422020.614    21422029.7754
  23581475.646    -8685997.107 8  -6494163.98645  23581474.875    23581486.2744
  21577279.723   -15331096.235 9 -11695476.48747  21577279.421    21577288.0234
 00  1 28  0  8  0.0000000  0  6 24 16 04 05 07 09
  20339158.851   -23119931.883 9 -16987294.03548  20339158.624    20339167.2134
  24393383.821    -3382166.268 7  -2630145.86745  24393383.162    24393396.9584
  20808240.683   -19760809.448 9 -15385247.82647  20808240.745    20808248.5714
  21409158.701   -16319453.247 9 -12685978.62047  21409158.049    21409167.2574
  23594040.253    -8619969.167 8  -6442713.63745  23594039.536    23594050.9774
  21586477.820   -15282760.089 9 -11657811.96247  21586477.532    21586485.9954
 00  1 28  0  8 30.0000000  0  6 24 16 04 05 07 09
  20333693.955   -23148649.541 9 -17009671.38148  20333693.737    20333702.2834
  24396700.040    -3364737.812 7  -2616565.17445  24396699.526    24396713.3384
  20818429.260   -19707267.793 9 -15343527.05347  20818429.351    20818437.2664
  21396336.799   -16386832.237 9 -12738481.62747  21396336.185    21396345.4354
  23606609.396    -8553918.324 8  -6391245.45645  23606608.605    23606620.1554
  21595762.772   -15233967.032 9 -11619791.40947  21595762.485    21595770.9264
 00  1 28  0  9  0.0000000  0  7 24 16 04 05 07 30 09
  20328320.988   -23176884.435 9 -17031672.54348  20328320.767    20328329.2994
  24400113.136    -3346803.030 7  -2602589.93445  24400112.504    24400126.4704
  20828696.439   -19653313.247 9 -15301484.54547  20828696.553    20828704.4364
  21383558.520   -16453982.214 9 -12790806.18147  21383557.891    21383567.1494
  23619181.668    -8487850.625 8  -6339764.16545  23619180.881    23619192.4954
  24519306.113                                    24519310.914    24519321.4284
  21605130.608   -15184738.954 9 -11581431.86447  21605130.320    21605138.7354
 00  1 28  0  9 30.0000000  0  7 24 16 04 05 07 30 09
  20323039.558   -23204637.936 9 -17053298.59548  20323039.353    20323047.9174
  24403620.702    -3328370.082 8  -2588226.54145  24403620.125    24403634.1984
  20839041.251   -19598950.696 9 -15259124.10947  20839041.392    20839049.2644
  21370825.092   -16520896.055 9 -12842946.73147  21370824.536    21370833.8044
  23631754.151    -8421781.559 8  -6288281.78345  23631753.418    23631765.0764
  24500333.883    -1356051.128 7  -1045378.17755  24500333.212    24500347.2784
  21614579.117   -15135086.005 9 -11542741.25447  21614578.869    21614587.3144
 00  1 28  0 10  0.0000000  0  7 24 16 04 05 07 30 09
  20317854.404   -23231886.104 9 -17074530.88348  20317854.182    20317862.7194
  24407225.877    -3309425.546 8  -2573464.53045  24407225.290    24407239.3714
  20849466.712   -19544164.804 9 -15216433.80347  20849466.775    20849474.6544
  21358136.951   -16587571.982 9 -12894901.90547  21358136.480    21358145.6394
  23644325.816    -8355717.358 8  -6236803.18945  23644325.084    23644336.8154
  24481356.692    -1455775.826 7  -1123085.30645  24481358.238    24481372.1734
  21624108.478   -15085008.660 9 -11503719.95347  21624108.271    21624116.7804
 00  1 28  0 10 30.0000000  0  7 24 16 04 05 07 30 09
  20312774.181   -23258582.639 9 -17095333.32048  20312773.969    20312782.4774
  24410934.593    -3289936.484 7  -2558278.19145  24410933.952    24410947.8844
  20859978.647   -19488923.861 9 -15173388.90947  20859978.747    20859986.5754
  21345500.317   -16653977.882 9 -12946646.64947  21345499.798    21345508.8694
  23656898.871    -8289646.119 8  -6185319.09445  23656898.110    23656909.8974
  24462379.785    -1555498.436 7  -1200790.83945  24462379.947    24462395.5534
  21633722.883   -15034485.052 9 -11464350.91447  21633722.586    21633731.1624
 00  1 28  0 11  0.0000000  0  7 24 16 04 05 07 30 09
  20307804.817   -23284696.644 9 -17115681.84148  20307804.590    20307813.0844
  24414749.715    -3269888.542 7  -2542656.40045  24414748.921    24414762.5894
  20870583.205   -19433197.034 9 -15129965.40147  20870583.246    20870590.9764
  21332916.683   -16720105.746 9 -12998174.75147  21332916.100    21332925.0464
  23669476.651    -8223549.072 8  -6133814.90145  23669475.863    23669487.7794
  24443402.606    -1655222.637 7  -1278497.59945  24443402.655    24443418.3854
  21643426.856   -14983490.044 9 -11424614.53847  21643426.588    21643435.2704
 00  1 28  0 11 30.0000000  0  7 24 16 04 05 07 30 09
  20302947.416   -23310222.190 9 -17135571.81948  20302947.222    20302955.7314
  24418673.006    -3249271.299 7  -2526590.98745  24418672.165    24418685.7004
  20881284.793   -19376960.203 9 -15086144.48847  20881284.807    20881292.4694
  21320384.212   -16785963.571 9 -13049492.43847  21320383.606    21320392.5444
  23682061.728    -8157414.419 8  -6082281.41445  23682060.890    23682072.6824
  24424427.276    -1754937.255 7  -1356196.93845  24424427.311    24424443.2534
  21653222.114   -14932015.665 9 -11384504.63747  21653221.807    21653230.5214
 00  1 28  0 12  0.0000000  0  7 24 16 04 05 07 30 09
  20298200.626   -23335166.921 9 -17155009.21948  20298200.388    20298208.8704
  24422704.405    -3228085.293 7  -2510082.37744  24422703.764    24422717.0724
  20892083.519   -19320212.177 9 -15041925.24747  20892083.542    20892091.1954
  21307902.131   -16851556.657 9 -13100603.82547  21307901.497    21307910.4514
  23694653.697    -8091243.068 8  -6030719.34845  23694652.883    23694664.7284
  24405455.913    -1854630.987 7  -1433879.97445  24405455.835    24405472.2574
  21663108.475   -14880062.158 9 -11344021.38447  21663108.252    21663116.9424
 00  1 28  0 12 30.0000000  0  7 24 16 04 05 07 30 09
  20293561.304   -23359546.598 9 -17174006.30548  20293561.060    20293569.4884
  24426841.755    -3206341.894 7  -2493139.41344  24426841.000    24426854.8714
  20902980.544   -19262947.714 9 -14997303.57347  20902980.598    20902988.2374
  21295471.472   -16916879.865 9 -13151504.92047  21295470.843    21295479.6974
  23707253.217    -8025031.561 8  -5979125.96545  23707252.600    23707264.4564
  24386486.844    -1954312.522 7  -1511553.50645  24386486.877    24386503.1634
  21673087.979   -14827620.456 9 -11303157.72147  21673087.703    21673096.2494
 00  1 28  0 13  0.0000000  0  7 24 16 04 05 07 30 09
  20289027.136   -23383373.420 9 -17192572.60248  20289026.899    20289035.3404
  24431083.484    -3184049.853 7  -2475768.94844  24431082.915    24431096.6854
  20913972.823   -19205183.081 9 -14952292.16647  20913972.848    20913980.4994
  21283092.760   -16981930.027 9 -13202193.25447  21283092.102    21283100.9014
  23719860.862    -7958778.836 8  -5927500.47945  23719860.142    23719871.9544
  24367519.548    -2053984.975 7  -1589220.02345  24367519.658    24367535.8934
  21683159.745   -14774692.867 9 -11261915.44547  21683159.481    21683168.0704
 00  1 28  0 13 30.0000000  0  7 24 16 04 05 07 30 09
  20284596.822   -23406654.387 9 -17210713.55648  20284596.596    20284605.0624
  24435430.409    -3161207.408 7  -2457969.56344  24435429.923    24435443.1064
  20925056.799   -19146936.370 9 -14906905.10547  20925056.785    20925064.4784
  21270766.709   -17046702.784 9 -13252665.42347  21270766.135    21270774.9024
  23732475.174    -7892489.872 8  -5875846.73645  23732474.539    23732486.1644
  24348556.736    -2153634.924 7  -1666869.01245  24348556.765    24348572.8534
  21693320.551   -14721297.482 9 -11220308.66847  21693320.277    21693328.9134
 00  1 28  0 14  0.0000000  0  7 24 16 04 05 07 30 09
  20280269.960   -23429391.609 9 -17228430.81848  20280269.752    20280278.2364
  24439880.182    -3137823.061 7  -2439747.99544  24439879.803    24439893.3684
  20936228.806   -19088226.479 9 -14861157.13647  20936228.860    20936236.5964
  21258495.146   -17111189.963 9 -13302915.06147  21258494.581    21258503.3804
  23745094.887    -7826173.097 8  -5824171.31545  23745094.253    23745105.7594
  24329599.879    -2253254.336 7  -1744494.18745  24329599.579    24329615.0984
  21703567.949   -14667447.549 9 -11178347.68247  21703567.653    21703576.2764
 00  1 28  0 14 30.0000000  0  7 24 16 04 05 07 30 09
  20276046.788   -23451584.361 9 -17245723.81548  20276046.575    20276055.0764
  24444432.926    -3113899.107 7  -2421105.86444  24444432.432    24444445.3024
  20947487.194   -19029063.738 9 -14815056.28847  20947487.206    20947494.9304
  21246278.749   -17175387.177 9 -13352938.75947  21246278.188    21246286.9204
  23757721.627    -7759819.260 8  -5772467.05545  23757720.792    23757732.4924
  24310649.018    -2352839.893 7  -1822093.01245  24310649.017    24310664.1464
  21713900.606   -14613148.726 9 -11136036.91747  21713900.330    21713909.0674
 00  1 28  0 15  0.0000000  0  7 24 16 04 05 07 30 09
  20271928.223   -23473227.286 9 -17262588.37548  20271928.016    20271936.4924
  24449089.355    -3089428.030 7  -2402037.50844  24449088.769    24449101.7004
  20958826.702   -18969474.112 9 -14768622.79747  20958826.736    20958834.4334
  21234116.159   -17239302.115 9 -13402742.50047  21234115.548    21234124.2114
  23770353.725    -7693436.525 8  -5720740.26345  23770352.907    23770364.7264
  24291706.220    -2452383.357 7  -1899659.03245  24291706.482    24291721.2154
  21724316.528   -14558412.280 9 -11093385.14747  21724316.259    21724325.0414
 00  1 28  0 15 30.0000000  0  7 24 16 04 05 07 30 09
  20267911.473   -23494335.361 9 -17279036.17248  20267911.287    20267919.6694
  24453850.635    -3064407.288 8  -2382540.76945  24453850.001    24453862.9134
  20970248.154   -18909453.751 9 -14721853.67847  20970248.209    20970255.9144
  21222006.655   -17302937.655 9 -13452328.52347  21222006.041    21222014.7244
  23782990.009    -7627033.434 8  -5668997.59845  23782989.029    23783000.7274
  24272770.644    -2551890.161 8  -1977196.50545  24272770.871    24272785.4994
  21734814.243   -14503245.782 9 -11050398.27247  21734814.002    21734822.9094
 00  1 28  0 16  0.0000000  0  7 24 16 04 05 07 30 09
  20263994.143   -23514921.031 9 -17295076.88948  20263993.939    20264002.3004
  24458715.163    -3038844.655 8  -2362621.79145  24458714.574    24458727.4324
  20981751.515   -18849003.310 9 -14674749.42647  20981751.576    20981759.2364
  21209948.549   -17366303.101 9 -13501704.09547  21209947.919    21209956.6054
  23795628.482    -7560615.709 8  -5617243.55845  23795627.729    23795639.5194
  24253838.682    -2651378.865 7  -2054719.86345  24253838.697    24253853.2594
  21745396.184   -14447637.195 9 -11007066.91047  21745395.956    21745404.8874
 00  1 28  0 16 30.0000000  0  7 24 16 04 05 07 30 09
  20260172.950   -23535001.380 9 -17310723.85648  20260172.754    20260181.0704
  24463681.174    -3012749.200 8  -2342287.62345  24463680.506    24463693.3254
  20993334.157   -18788136.303 9 -14627320.57247  20993334.217    20993341.7604
  21197937.969   -17429418.907 9 -13550885.15147  21197937.304    21197945.9564
  23808269.213    -7494188.685 8  -5565482.25445  23808268.428    23808280.0904
  24234905.134    -2750874.165 7  -2132248.38345  24234905.314    24234919.6934
  21756063.686   -14391579.049 9 -10963385.24347  21756063.411    21756072.3824
 00  1 28  0 17  0.0000000  0  7 24 16 04 05 07 30 09
  20256444.347   -23554595.087 9 -17325991.62948  20256444.165    20256452.5064
  24468747.054    -2986128.542 7  -2321544.19545  24468746.379    24468759.5064
  21004993.491   -18726865.922 9 -14579577.40947  21004993.566    21005001.0404
  21185973.379   -17492292.533 9 -13599877.49547  21185972.717    21185981.3904
  23820909.127    -7427766.317 8  -5513724.58145  23820908.388    23820919.8504
  24215967.728    -2850390.220 7  -2209793.04545  24215967.715    24215982.1544
  21766813.932   -14335085.979 9 -10919364.68247  21766813.708    21766822.6474
 00  1 28  0 17 30.0000000  0  7 24 16 04 05 07 30 09
  20252807.857   -23573705.067 9 -17340882.46648  20252807.603    20252815.9324
  24473909.852    -2958996.549 7  -2300402.33445  24473909.435    24473922.7734
  21016731.120   -18665183.721 9 -14531513.33947  21016731.240    21016738.7874
  21174054.119   -17554928.389 9 -13648684.56047  21174053.468    21174062.1774
  23833549.018    -7361343.081 8  -5461966.23845  23833548.298    23833559.9454
  24197026.079    -2949927.059 7  -2287353.93145  24197026.157    24197040.4544
  21777644.162   -14278172.828 9 -10875016.77647  21777643.921    21777652.9014
 00  1 28  0 18  0.0000000  0  7 24 16 04 05 07 30 09
  20249267.231   -23592310.786 9 -17355380.37248  20249267.034    20249275.3534
  24479167.047    -2931369.766 7  -2278874.91945  24479166.427    24479179.9384
  21028545.078   -18603101.350 9 -14483137.45247  21028545.161    21028552.6994
  21162179.102   -17617331.898 9 -13697310.57947  21162178.439    21162187.0794
  23846189.546    -7294917.133 8  -5410205.77245  23846188.807    23846200.5264
  24178082.988    -3049472.558 7  -2364921.55545  24178083.082    24178097.3334
  21788553.186   -14220845.667 9 -10830346.26147  21788552.958    21788561.9214
 00  1 28  0 18 30.0000000  0  8 24 16 04 10 05 07 30 09
  20245821.557   -23610417.992 9 -17369489.82648  20245821.310    20245829.6064
  24484514.223    -2903269.986 7  -2256978.88844  24484513.735    24484527.2584
  21040428.751   -18540652.783 9 -14434476.21347  21040428.734    21040436.2194
  24580710.408    -2826209.226 7  -1986549.51545  24580709.370    24580724.2654
  21150347.769   -17679505.746 9 -13745757.64547  21150347.089    21150355.5734
  23858826.665    -7228509.181 8  -5358459.32645  23858825.929    23858837.3614
  24159138.226    -3149025.367 8  -2442494.87045  24159138.517    24159152.5324
  21799535.477   -14163133.808 9 -10785375.98747  21799535.206    21799544.1544
 00  1 28  0 19  0.0000000  0  8 24 16 04 10 05 07 30 09
  20242483.813   -23627957.580 9 -17383156.98748  20242483.600    20242491.9134
  24489959.174    -2874654.603 7  -2234681.11844  24489958.814    24489972.6924
  21052389.744   -18477796.704 9 -14385497.44747  21052389.814    21052397.3654
  24562015.385    -2924449.062 7  -2063099.69345  24562014.543    24562029.5924
  21138570.867   -17741393.593 9 -13793981.85947  21138570.172    21138578.5764
  23871466.733    -7162084.649 8  -5306699.97945  23871465.968    23871477.5204
  24140203.308    -3248527.300 8  -2520028.55245  24140203.825    24140217.2754
  21810595.603   -14105012.325 9 -10740086.51947  21810595.309    21810604.2354
 00  1 28  0 19 30.0000000  0  8 24 16 04 10 05 07 30 09
  20239257.846   -23644909.688 9 -17396366.36448  20239257.654    20239265.9594
  24495501.864    -2845528.359 7  -2211985.35644  24495501.416    24495515.0534
  21064430.572   -18414522.067 9 -14336192.52447  21064430.628    21064438.2164
  24543310.037    -3022744.650 7  -2139693.36345  24543309.272    24543324.1834
  21126849.535   -17802989.155 9 -13841978.31447  21126848.917    21126857.2224
  23884110.877    -7095638.485 8  -5254923.75145  23884110.374    23884121.9194
  24121279.485    -3347972.325 8  -2597517.91745  24121280.105    24121292.8254
  21821736.705   -14046465.212 9 -10694465.39847  21821736.456    21821745.3914
 00  1 28  0 20  0.0000000  0  8 24 16 04 10 05 07 30 09
  20236143.546   -23661275.400 9 -17409118.81548  20236143.330    20236151.6244
  24501143.673    -2815880.397 7  -2188883.02144  24501143.201    24501156.8534
  21076549.650   -18350836.153 9 -14286567.12547  21076549.668    21076557.2554
  24524594.369    -3121095.853 7  -2216330.37745  24524593.467    24524608.1964
  21115186.207   -17864280.280 9 -13889737.54047  21115185.601    21115193.8274
  23896759.284    -7029171.572 8  -5203131.37045  23896758.688    23896770.1694
  24102362.991    -3447378.951 7  -2674977.35845  24102363.253    24102376.0854
  21832960.972   -13987480.944 9 -10648503.62547  21832960.706    21832969.6764
 00  1 28  0 20 30.0000000  0  8 24 16 04 10 05 07 30 09
  20233137.365   -23677072.991 9 -17421428.57648  20233137.141    20233145.3934
  24506889.007    -2785689.258 7  -2165357.47145  24506888.474    24506901.9684
  21088747.186   -18286737.413 9 -14236620.05047  21088747.214    21088754.8784
  24505866.922    -3219508.330 7  -2293015.16945  24505866.082    24505880.3754
  21103583.642   -17925252.148 9 -13937247.99847  21103582.964    21103591.1774
  23909413.597    -6962672.194 7  -5151313.68845  23909413.018    23909424.6644
  24083450.431    -3546763.008 8  -2752419.23745  24083450.884    24083463.4784
  21844268.952   -13928056.728 9 -10602199.04147  21844268.698    21844277.6494
 00  1 28  0 21  0.0000000  0  8 24 16 04 10 05 07 30 09
  20230237.925   -23692309.499 9 -17433301.13048  20230237.668    20230245.8724
  24512737.229    -2754956.857 7  -2141410.12945  24512736.457    24512749.9134
  21101025.026   -18222216.936 9 -14186344.35247  21101025.084    21101032.7244
  24487125.039    -3317997.263 7  -2369759.53045  24487124.158    24487138.1984
  21092041.108   -17985908.604 9 -13984512.67547  21092040.395    21092048.5934
  23922076.277    -6896128.861 8  -5099461.76245  23922075.811    23922087.4374
  24064539.866    -3646138.413 8  -2829854.31045  24064540.196    24064552.7784
  21855660.887   -13868190.634 9 -10555550.13347  21855660.711    21855669.6774
 00  1 28  0 21 30.0000000  0  8 24 16 04 10 05 07 30 09
  20227440.190   -23707011.301 9 -17444757.03648  20227439.975    20227448.1564
  24518689.124    -2723678.924 7  -2117037.69445  24518688.375    24518701.8454
  21113383.591   -18157272.580 9 -14135738.35747  21113383.569    21113391.1854
  24468370.161    -3416552.276 7  -2446555.39245  24468369.431    24468383.6394
  21080557.974   -18046251.985 9 -14031533.40247  21080557.334    21080565.5994
  23934748.686    -6829536.453 8  -5047571.57745  23934748.098    23934759.4974
  24045630.583    -3745507.939 8  -2907284.85045  24045630.576    24045643.2274
  21867138.748   -13807874.242 9 -10508550.33847  21867138.585    21867147.4404
 00  1 28  0 22  0.0000000  0  8 24 16 04 10 05 07 30 09
  20224740.493   -23721198.415 9 -17455811.88348  20224740.254    20224748.3934
  24524744.773    -2691857.512 7  -2092241.76644  24524743.683    24524757.3844
  21125818.634   -18091925.161 9 -14084818.28547  21125818.780    21125826.4044
  24449600.436    -3515183.135 7  -2523410.37945  24449600.054    24449614.3414
  21069134.534   -18106281.938 9 -14078309.90647  21069133.922    21069142.1914
  23947429.599    -6762898.388 8  -4995645.81545  23947428.979    23947440.2634
  24026722.539    -3844870.678 8  -2984710.08745  24026722.367    24026734.9324
  21878698.614   -13747127.250 9 -10461215.01247  21878698.452    21878707.2424
 00  1 28  0 22 30.0000000  0  8 24 16 04 10 05 07 30 09
  20222137.321   -23734877.489 9 -17466470.85448  20222137.096    20222145.2564
  24530900.442    -2659509.854 7  -2067035.74044  24530899.472    24530912.7334
  21138330.103   -18026177.056 9 -14033585.99247  21138330.209    21138337.8354
  24430814.998    -3613901.046 7  -2600333.15245  24430814.329    24430828.5114
  21057768.444   -18166010.269 9 -14124851.38247  21057767.861    21057776.2044
  23960117.480    -6696223.117 8  -4943691.03545  23960116.847    23960128.0034
  24007818.462    -3944211.916 8  -3062118.58345  24007818.313    24007830.7134
  21890336.982   -13685967.983 9 -10413558.43047  21890336.785    21890345.3504
 00  1 28  0 23  0.0000000  0  8 24 16 04 10 05 07 30 09
  20219631.536   -23748045.124 9 -17476731.30248  20219631.361    20219639.5124
  24537153.629    -2626649.788 7  -2041430.49244  24537152.512    24537165.7804
  21150918.800   -17960022.600 9 -13982037.06947  21150918.934    21150926.5704
  24412016.042    -3712690.966 7  -2677312.07945  24412015.115    24412029.2184
  21046457.176   -18225450.707 9 -14171168.52947  21046456.582    21046464.9514
  23972807.833    -6629535.509 8  -4891726.68845  23972807.191    23972818.1324
  23988921.437    -4043516.681 8  -3139498.64945  23988921.126    23988933.6464
  21902051.338   -13624409.363 9 -10365590.66847  21902051.135    21902059.5744
 00  1 28  0 23 30.0000000  0  8 24 16 04 10 05 07 30 09
  20217223.135   -23760701.170 9 -17486593.10648  20217222.928    20217231.0794
  24543505.362    -2593270.733 7  -2015420.83544  24543504.066    24543517.2644
  21163585.596   -17893458.279 9 -13930168.76547  21163585.724    21163593.2804
  24393205.986    -3811536.161 7  -2754334.04745  24393205.145    24393219.4344
  21035201.095   -18284601.134 9 -14217259.69347  21035200.514    21035208.9734
  23985498.700    -6562845.826 8  -4839760.71145  23985497.836    23985508.7104
  23970033.639    -4142772.248 8  -3216840.39445  23970033.262    23970045.7514
  21913838.120   -13562469.868 9 -10317326.11847  21913837.876    21913846.3074
 00  1 28  0 24  0.0000000  0  8 24 16 04 10 05 07 30 09
  20214914.958   -23772830.149 9 -17496044.21648  20214914.806    20214922.9324
  24549956.343    -2559369.323 6  -1989004.12744  24549955.338    24549968.5104
  21176329.787   -17826487.670 9 -13877983.87947  21176329.872    21176337.3774
  24374384.015    -3910444.666 7  -2831405.32345  24374383.386    24374397.7544
  21024000.490   -18343460.045 9 -14263123.70047  21023999.908    21024008.4114
  23998188.493    -6496160.365 8  -4787797.98945  23998187.540    23998198.6814
  23951156.208    -4241971.936 8  -3294138.59645  23951155.969    23951168.3914
  21925696.300   -13500154.432 9 -10268768.63447  21925696.066    21925704.5834
 00  1 28  0 24 30.0000000  0  8 24 16 04 10 05 07 30 09
  20212708.483   -23784425.287 9 -17505079.34748  20212708.293    20212716.4434
  24556507.035    -2524940.17916                  24556506.805    24556520.7794
  21189151.465   -17759108.804 9 -13825480.87947  21189151.606    21189159.1784
  24355552.678    -4009403.715 7  -2908516.00445  24355551.972    24355566.2674
  21012856.247   -18402022.972 9 -14308757.07047  21012855.653    21012864.1664
  24010875.885    -6429486.906 7  -4735844.66845  24010875.157    24010886.3504
  23932292.073    -4341102.693 7  -3371383.07245  23932291.819    23932304.2184
  21937627.578   -13437455.382 9 -10219912.23047  21937627.347    21937635.9354
